Satellite-Ground Cal/Val Region Overpasses Predictions

Prediction of Satellite NPP Overpassing Cal/Val Region: PacNW

Region Location: (Latitude: 10.00, Longitude: 139.50) to (Latitude: 22.70, Longitude: 165.60).

Table of predicted overpasses for the next 14.0 days since TLE Epoch: 5/16/2019
Interval Starting Time Starting Location Ending Time Ending Location
1 05/17/2019 03:23:38 ( 10.06, 148.76) 05/17/2019 03:27:13 ( 22.68, 145.76)
2 05/17/2019 15:55:31 ( 22.68, 146.01) 05/17/2019 15:59:07 ( 10.00, 142.99)
3 05/18/2019 03:04:37 ( 10.05, 153.52) 05/18/2019 03:08:12 ( 22.67, 150.52)
4 05/18/2019 15:36:29 ( 22.69, 150.77) 05/18/2019 15:40:05 ( 10.01, 147.75)
5 05/19/2019 02:45:35 ( 10.04, 158.28) 05/19/2019 02:49:10 ( 22.66, 155.27)
6 05/19/2019 15:17:28 ( 22.70, 155.52) 05/19/2019 15:21:04 ( 10.02, 152.51)
7 05/20/2019 02:26:34 ( 10.03, 163.04) 05/20/2019 02:30:09 ( 22.66, 160.03)
8 05/20/2019 14:58:28 ( 22.65, 160.27) 05/20/2019 15:02:03 ( 10.03, 157.26)
9 05/21/2019 02:10:12 ( 19.42, 165.59) 05/21/2019 02:11:07 ( 22.65, 164.79)
10 05/21/2019 03:49:02 ( 10.03, 142.42) 05/21/2019 03:52:31 ( 22.30, 139.50)
11 05/21/2019 14:39:26 ( 22.65, 165.02) 05/21/2019 14:43:01 ( 10.03, 162.02)
12 05/21/2019 16:20:56 ( 22.65, 139.65) 05/21/2019 16:21:06 ( 22.06, 139.50)
13 05/22/2019 03:30:01 ( 10.03, 147.18) 05/22/2019 03:33:36 ( 22.65, 144.17)
14 05/22/2019 16:01:55 ( 22.66, 144.41) 05/22/2019 16:05:30 ( 10.04, 141.40)
15 05/23/2019 03:10:59 ( 10.02, 151.93) 05/23/2019 03:14:34 ( 22.64, 148.93)
16 05/23/2019 15:42:53 ( 22.66, 149.16) 05/23/2019 15:46:28 ( 10.04, 146.16)
17 05/24/2019 02:51:58 ( 10.01, 156.69) 05/24/2019 02:55:34 ( 22.70, 153.67)
18 05/24/2019 15:23:52 ( 22.67, 153.92) 05/24/2019 15:27:27 ( 10.05, 150.92)
19 05/25/2019 02:32:56 ( 10.01, 161.45) 05/25/2019 02:36:32 ( 22.69, 158.43)
20 05/25/2019 15:04:50 ( 22.67, 158.68) 05/25/2019 15:08:25 ( 10.05, 155.68)
21 05/26/2019 02:14:40 ( 12.65, 165.60) 05/26/2019 02:17:31 ( 22.69, 163.19)
22 05/26/2019 03:55:25 ( 10.01, 140.83) 05/26/2019 03:57:02 ( 15.71, 139.51)
23 05/26/2019 14:45:49 ( 22.68, 163.44) 05/26/2019 14:49:25 ( 10.00, 160.42)
24 05/27/2019 03:36:23 ( 10.00, 145.59) 05/27/2019 03:39:59 ( 22.69, 142.57)
25 05/27/2019 14:29:52 ( 11.83, 165.60) 05/27/2019 14:30:23 ( 10.01, 165.18)
26 05/27/2019 16:08:17 ( 22.68, 142.82) 05/27/2019 16:11:53 ( 10.00, 139.80)
27 05/28/2019 03:17:23 ( 10.06, 150.33) 05/28/2019 03:20:58 ( 22.68, 147.33)
28 05/28/2019 15:49:16 ( 22.68, 147.58) 05/28/2019 15:52:52 ( 10.01, 144.56)
29 05/29/2019 02:58:22 ( 10.05, 155.09) 05/29/2019 03:01:57 ( 22.68, 152.08)
30 05/29/2019 15:30:14 ( 22.69, 152.33) 05/29/2019 15:33:50 ( 10.01, 149.32)
31 05/30/2019 02:39:20 ( 10.05, 159.85) 05/30/2019 02:42:55 ( 22.67, 156.84)


NCC Satellite Cal/Val Overpasses Prediction Service
